RH
46 42 39 38 37 37 36 38 39 38 38 37 37 37 40 42 41 43 44 48 51 43 39 38 40 43 53 58 63 67 78 72 77 73 93 96 91 77 56 56 76 91 74 76 82 79 82
52 48 44 41 37 39 37 37 40 38 38 37 36 39 40 47 39 42 47 53 53 44 38 37 43 48 51 52 46 55 60 64 80 94 88 96 97 82 57 54 75 65 90 81 75 79 77
54 52 51 44 41 37 38 37 40 38 38 40 36 39 41 47 46 33 47 54 56 47 40 39 44 51 59 61 59 49 51 59 76 91 89 98 97 85 68 60 59 67 82 90 83 80 80
56 53 50 49 45 40 38 37 39 37 37 39 39 39 42 47 48 32 47 57 57 48 43 42 49 54 61 71 75 72 59 61 78 86 92 97 99 90 74 63 55 60 77 85 83 88 82
55 56 51 47 49 43 40 38 38 36 36 35 38 40 40 42 47 36 45 57 60 48 46 48 47 54 65 73 84 77 65 66 82 85 96 98 98 91 75 62 60 64 58 69 80 80 80
60 58 61 60 51 45 43 38 38 35 34 32 33 38 40 39 45 37 45 56 57 51 49 51 45 54 55 85 89 83 69 76 92 90 93 97 98 90 81 69 60 59 57 57 59 65 72
67 58 65 63 54 46 45 38 36 34 31 31 32 35 39 38 43 39 46 58 59 61 64 70 63 49 50 82 80 79 76 88 84 93 96 97 98 86 69 60 57 56 62 60 59 62 62
71 64 66 62 51 48 45 37 34 31 30 31 31 34 37 37 40 42 47 58 57 61 69 78 79 50 54 88 89 75 88 95 98 98 88 96 97 89 82 75 62 55 54 52 53 55 57
79 70 66 59 51 43 40 36 30 30 30 30 31 33 35 37 37 43 47 56 59 61 71 82 79 68 67 86 91 92 90 82 95 94 87 90 92 95 87 75 70 60 54 50 46 59 60
83 78 63 54 48 41 36 35 27 29 28 30 31 32 34 36 39 44 47 57 64 62 75 82 87 80 84 85 93 96 89 86 92 95 88 93 94 95 89 78 70 74 62 53 51 50 53
86 81 63 53 46 40 35 32 25 25 27 29 29 31 34 32 39 47 49 57 70 66 76 79 93 82 81 84 86 95 90 84 86 89 89 90 96 96 87 80 70 67 59 58 51 47 45
95 90 64 55 47 37 35 30 25 24 23 24 23 26 26 33 42 47 49 55 71 70 78 82 90 88 81 80 88 93 96 83 89 89 97 97 96 90 86 84 77 70 63 57 52 51 54
95 93 70 58 46 37 33 28 25 24 22 22 25 30 35 40 43 47 50 57 73 74 73 79 95 96 94 80 75 85 89 82 81 91 98 97 93 89 84 83 79 71 68 75 70 66 52
92 96 74 60 47 36 32 28 25 24 22 24 30 35 37 41 43 48 52 56 73 72 74 78 89 96 92 93 80 78 76 79 81 81 89 97 91 88 83 79 75 75 62 62 63 58 50
93 97 83 67 49 36 30 28 26 24 22 26 33 37 40 42 47 50 56 61 71 75 75 75 83 88 99 97 90 82 76 74 75 82 83 96 95 90 88 82 75 73 73 58 57 54 50
93 98 95 73 48 36 28 28 25 23 22 27 35 39 41 46 48 55 58 63 71 71 77 84 84 93 91 97 91 83 81 75 72 81 80 87 96 92 88 84 79 72 65 66 63 64 51
94 98 98 81 48 34 27 28 25 24 22 28 37 41 44 47 51 57 61 68 67 71 78 81 88 94 91 95 91 77 76 76 77 78 80 86 85 95 89 87 85 77 73 68 61 58 55
95 99 98 87 47 33 27 29 27 25 23 30 36 40 45 48 55 56 65 66 66 68 70 77 89 86 91 87 89 83 80 81 86 91 92 86 86 97 97 86 83 77 71 68 65 68 61
96 98 98 89 45 30 28 29 28 27 26 30 36 39 43 48 53 53 59 65 68 71 67 68 80 84 78 80 82 82 85 86 93 89 86 80 86 96 97 88 84 82 74 70 67 63 65
99 98 97 85 43 30 29 29 29 28 25 27 33 39 45 49 54 53 57 64 69 69 65 64 72 78 79 77 74 78 84 85 89 89 82 77 73 72 68 68 68 73 69 68 65 71 60
99 99 97 77 41 31 31 30 28 29 25 25 27 32 37 46 48 51 56 62 70 72 65 63 65 70 68 69 75 76 80 84 84 87 83 78 80 73 65 66 67 66 63 63 67 59 68
99 99 97 70 41 33 32 30 28 29 25 24 25 27 35 39 44 50 53 60 65 70 69 67 63 67 64 64 69 72 78 78 79 78 82 77 80 74 74 67 66 68 64 64 63 63 66
99 98 97 70 42 35 35 32 30 30 26 24 25 26 29 37 43 48 50 57 66 67 74 71 71 65 69 68 66 66 66 69 76 86 84 81 78 78 76 71 68 68 64 65 66 68 67
99 98 96 68 45 37 37 33 31 31 26 24 24 28 28 35 39 41 46 54 66 64 68 75 67 69 71 68 68 65 65 68 69 68 70 76 79 80 80 72 70 54 53 54 55 55 56
98 98 93 67 47 43 41 36 33 31 26 24 26 26 27 35 39 42 47 51 58 71 71 72 78 71 75 71 65 68 69 68 71 73 68 65 64 68 67 63 55 56 57 58 59 63 60
96 97 88 66 48 44 45 37 36 33 26 25 27 29 27 32 39 42 42 49 51 61 75 72 72 72 71 75 70 66 67 70 74 75 74 72 67 65 65 64 60 57 60 60 59 66 64
97 96 83 63 46 47 45 39 38 35 27 28 28 30 29 34 39 40 41 43 46 52 59 71 72 77 82 75 76 74 71 68 75 74 78 81 79 78 77 76 64 60 64 64 67 70 66
96 92 78 54 49 42 44 41 38 34 30 29 29 29 28 36 41 40 42 44 44 44 51 59 74 73 82 83 75 77 75 75 77 77 78 76 73 73 75 77 76 72 74 72 72 67 64
96 86 72 56 43 43 46 41 36 34 32 30 28 29 31 32 39 38 40 41 42 48 51 62 71 77 77 86 84 81 75 78 75 75 78 81 75 72 71 71 71 73 74 76 69 64 61